Location: Castillon
(43.0896°N, 0.2156°E)
Time: 04:31:36
(UTC+00:00)

Cosmos 1980 Rocket - Pass Details

Date: 18 October 2021
Orbit: 828 x 851 km, 71.0° (Epoch: 07 December)

Event Time Altitude Azimuth Distance (km) Brightness Sun altitude
Exits shadow 05:22:58 11° 294° (WNW) 2,380 4.0 -10.5°
Maximum altitude 05:25:49 16° 262° (W) 2,073 3.6 -10.0°
Drops below altitude 10° 05:29:09 10° 226° (SW) 2,469 4.2 -9.4°
Sets 05:32:31 0° 205° (SSW) 3,396 5.1 -8.8°
